Regional Weather Roundup
Issued by NWS

Home | Current Version | Previous Version | Graphics & Text | Print | Product List | Glossary On
Versions: 1 2 3 4 5 6 7 8 9 10 11 12 13 14 15 16 17 18 19 20 21 22 23 24 25 26 27 28 29 30 31 32 33 34 35 36 37 38 39 40 41 42 43 44 45 46 47 48 49 50
000
ASUS43 KDMX 200807
RWRIA

WEATHER ROUNDUP FOR IOWA
NATIONAL WEATHER SERVICE DES MOINES IA
300 AM CDT WED AUG 20 2014

NOTE: "FAIR" INDICATES FEW OR NO CLOUDS BELOW 12,000 FEET WITH NO
SIGNIFICANT WEATHER AND/OR OBSTRUCTIONS TO VISIBILITY.

* - THESE STATIONS ARE NOT NWS STATIONS...THUS NOT UNDER NWS
QUALITY CONTROL.  THEY ALSO DO NOT REPORT WEATHER SUCH
AS PRECIPITATION OR FOG.

IAZ001>003-012>014-020>022-031>034-043>046-200900-
   NORTHWEST IOWA

CITY           SKY/WX    TMP DP  RH WIND       PRES   REMARKS
CARROLL *      PTCLDY    64  63  94 E3        29.82F
CHEROKEE *     CLEAR     63  63 100 CALM      29.81F
DENISON *      MOCLDY    66  66 100 CALM      29.80F FOG
LE MARS *        N/A     70  64  83 VRB5      29.79F
ORANGE CITY *  CLEAR     66  61  82 E3        29.81F
SHELDON *      CLEAR     61  61 100 SE3       29.80F
SIOUX CITY     CLOUDY    69  66  90 SE5       29.78F
SPENCER        CLEAR     62  60  93 E5        29.81F
STORM LAKE *   CLEAR     63  63 100 SE7       29.83F
$$

IAZ055>058-069>071-079>083-090>094-200900-
   SOUTHWEST IOWA

CITY           SKY/WX    TMP DP  RH WIND       PRES   REMARKS
ATLANTIC *     CLOUDY    70  68  94 CALM      29.80F
AUDUBON *      PTCLDY    68  66  94 CALM      29.83F
CLARINDA *     CLEAR     70  68  94 S5        29.81F
COUNCIL BLFS * CLEAR     72  70  94 SE8       29.78F
CRESTON *      MOCLDY    70  68  94 SE7       29.82F
HARLAN  *      CLOUDY    70  68  94 NE8       29.84F
LAMONI         MOCLDY    72  67  84 E5        29.82F
RED OAK *      MOCLDY    72  68  88 CALM      29.79F
SHENANDOAH *   PTCLDY    73  70  88 CALM      29.80F
$$

IAZ047>049-059>061-072>074-084-200900-
   CENTRAL IOWA

CITY           SKY/WX    TMP DP  RH WIND       PRES   REMARKS
AMES           CLEAR     64  63  96 SW3       29.83R FOG
ANKENY *       CLEAR     64  64 100 CALM      29.83S
CHARITON *     PTCLDY    70  66  88 CALM      29.83F
DES MOINES     PTCLDY    72  66  81 SE6       29.82F
GRINNELL*      PTCLDY    66  63  88 S5        29.85R
KNOXVILLE *    MOCLDY    70  64  83 CALM      29.82F
MARSHALLTOWN   CLEAR     63  62  97 CALM      29.83S
PELLA *        PTCLDY    66  66 100 CALM      29.85S FOG
PERRY *          N/A     64  64 100 CALM      29.83F
$$

IAZ004>006-015-016-023>025-035-036-200900-
   NORTH CENTRAL IOWA

CITY           SKY/WX    TMP DP  RH WIND       PRES   REMARKS
ALGONA *       CLEAR     63  63 100 CALM      29.83S
CLARION *      CLEAR     63  63 100 SE3       29.83S
ESTHERVILLE    CLEAR     61  60  97 CALM      29.81F
FORT DODGE *   CLEAR     61  61 100 CALM      29.82F
MASON CITY     CLEAR     66  63  90 W6        29.84S
FOREST CITY *  FOG       59  59 100 CALM      29.83S VSB 1
IOWA FALLS *     N/A     63  61  94 CALM      29.85R
$$

IAZ007>011-017>019-026>030-037>042-050>054-066-200900-
   NORTHEAST IOWA

CITY           SKY/WX    TMP DP  RH WIND       PRES   REMARKS
CEDAR RAPIDS   CLEAR     63  62  97 W5        29.83S
CHARLES CITY * CLEAR     64  63  94 CALM      29.84S
CLINTON *      CLEAR     63  61  94 W3        29.86R
DECORAH *      PTCLDY    66  63  88 CALM      29.82R
DUBUQUE        PTCLDY    63  61  93 SW6       29.84R
MONTICELLO *   CLEAR     61  59  94 CALM      29.83S
OELWEIN *      CLEAR     64  63  94 SW7       29.84S
WATERLOO       CLEAR     65  62  90 CALM      29.82R
$$

IAZ064-065-067-068-078-200900-
   EAST CENTRAL IOWA

CITY           SKY/WX    TMP DP  RH WIND       PRES   REMARKS
DAVENPORT      CLEAR     61  59  93 CALM      29.84S
IOWA CITY      CLEAR     62  62 100 W3        29.84S
MT. PLEASANT * CLEAR     63  63 100 CALM      29.85R FOG
MUSCATINE *    CLEAR     63  61  94 CALM      29.83S
QUAD CITIES    CLEAR     63  60  90 CALM      29.83S
$$

IAZ062-063-075>077-085>089-095>099-200900-
   SOUTHEAST IOWA

CITY           SKY/WX    TMP DP  RH WIND       PRES   REMARKS
BURLINGTON     CLEAR     64  64 100 CALM      29.84R
FAIRFIELD *    PTCLDY    64  63  94 CALM      29.84S
FORT MADISON * CLEAR     66  66 100 CALM      29.85R FOG
KEOKUK *       FOG       68  68 100 CALM      29.83S VSB 3/4
OSKALOOSA *      N/A     64  63  94 CALM      29.84S
CENTERVILLE *  CLEAR     68  68 100 CALM      29.85F
OTTUMWA        CLEAR     66  65  96 CALM      29.83F
WASHINGTON *   CLEAR     61  61 100 SW3       29.84R
$$

ABBREVIATIONS USED IN REMARKS
   TC - TEMPERATURES IN CELSIUS
  WCI - WIND CHILL INDEX
   HX - HEAT INDEX
  VSB - VISIBILITY
$$



USA.gov is the U.S. government's official web portal to all federal, state and local government web resources and services.